Regional Weather Roundup
Issued by NWS

Home | Current Version | Previous Version | Text Only | Print | Product List | Glossary On
Versions: 1 2 3 4 5 6 7 8 9 10 11 12 13 14 15 16 17 18 19 20 21 22 23 24 25 26 27 28 29
000
ASUS44 KLIX 240813
RWRLA
LOUISIANA WEATHER ROUNDUP
NATIONAL WEATHER SERVICE NEW ORLEANS LA
200 AM CST TUE JAN 24 2017

NOTE: "FAIR" INDICATES FEW OR NO CLOUDS BELOW 12,000 FEET WITH NO
      SIGNIFICANT WEATHER AND/OR OBSTRUCTIONS TO VISIBILITY.
      SKY/WX - SKY CONDITION AND SIGNIFICANT WEATHER.
      TMP - AIR TEMPERATURE.    DP   - DEWPOINT TEMPERATURE.
      RH  - RELATIVE HUMIDITY.  PRES - PRESSURE.
      HX  - HEAT INDEX.         WCI  - WIND CHILL INDEX.

*  THESE STATIONS ARE NOT NWS OR FAA STATIONS AND ARE NOT UNDER
   NWS QUALITY CONTROL.

LAZ040-048-061>063-065-066-069-240900-
SOUTHEAST LOUISIANA

CITY           SKY/WX    TMP DP  RH WIND       PRES   REMARKS
N.O. AUDUBON   NOT AVBL
N.O. INTL ARPT CLEAR     50  47  89 CALM      29.91R
N.O. LAKEFRONT CLEAR     57  51  80 W7        29.91R
N.O. DOWNTOWN*   N/A     56  45  66 CALM      29.91R
RESERVE*       FAIR      51  49  93 CALM      29.91S
SLIDELL        CLEAR     45  43  93 CALM      29.90R
BATON ROUGE    CLEAR     45  43  93 CALM      29.90S
BOOTHVILLE     CLEAR     51  49  92 W6        29.90R
BELLE CHASSE   CLEAR     46  44  93 CALM      29.90R
BOGALUSA*      FAIR      44  41  90 CALM      29.92R
GALLIANO*      SUNNY     45  43  93 CALM      29.90F
NEW ROADS*     FAIR      44  44  99 CALM      29.90F
GONZALES*      FAIR      46  44  93 CALM      29.90S
HAMMOND*       CLEAR     43  41  93 CALM      29.91R
HOUMA*         CLEAR     47  47 100 CALM      29.91S
PORT FOURCHON* SUNNY     57  52  82 CALM      29.90S

$$

LAZ041-044-053-054-240900-
SOUTHWEST LOUISIANA

CITY           SKY/WX    TMP DP  RH WIND       PRES   REMARKS
LAKE CHARLES   CLEAR     49  47  93 CALM      29.88S
LAFAYETTE      CLEAR     49  44  83 CALM      29.90S
PATTERSON      CLEAR     47  46  97 CALM      29.91S
SALT POINT     NOT AVBL
NEW IBERIA     CLEAR     46  43  89 SE3       29.91S
CHENAULT AIRPK CLEAR     47  45  93 CALM      29.89R

$$

LAZ027-028-240900-
CENTRAL LOUISIANA

CITY           SKY/WX    TMP DP  RH WIND       PRES   REMARKS
FORT POLK      CLEAR     42  41  95 CALM      29.87S
ALEXANDRIA INT CLEAR     43  42  97 CALM      29.87F
ALEXANDRIA     CLEAR     40  40 100 CALM      29.89S

$$

LAZ001-002-240900-
NORTHWEST LOUISIANA

CITY           SKY/WX    TMP DP  RH WIND       PRES   REMARKS
SHREVEPORT     PTCLDY    44  39  82 SE5       29.84S
BARKSDALE AFB  CLEAR     45  37  76 SE3       29.85S
DTN SHREVEPORT PTCLDY    45  38  76 SE6       29.85S

$$

LAZ014-016-240900-
NORTHEAST LOUISIANA

CITY           SKY/WX    TMP DP  RH WIND       PRES   REMARKS
MONROE         CLEAR     42  40  92 CALM      29.91R
TALLULAH       CLEAR     40  39  97 S3        29.91R

$$





USA.gov is the U.S. government's official web portal to all federal, state and local government web resources and services.